N2235 KPWM-

Flight info

Callsign N2235
Flight time N/A
Altitude VFR/025
Route EASTBOUND
Aircraft C172/L-VGD/C

Departure

Time 2026-05-06 18:11
Airport Portland International Jetport (KPWM)

Arrival

Time N/A
Airport -
Time Latitude Longitude Altitude Speed Heading
2026-05-06 18:03 43.64965 -70.30773 70 ft 0 kts 179°
2026-05-06 18:05 43.64961 -70.30748 51 ft 7 kts 44°
2026-05-06 18:05 43.64997 -70.30742 51 ft 0 kts 359°
2026-05-06 18:05 43.65006 -70.30740 51 ft 6 kts 16°
2026-05-06 18:05 43.65077 -70.30725 49 ft 14 kts 359°
2026-05-06 18:06 43.65193 -70.30749 46 ft 19 kts 338°
2026-05-06 18:06 43.65316 -70.30811 46 ft 16 kts 341°
2026-05-06 18:06 43.65344 -70.30824 47 ft 0 kts 342°
2026-05-06 18:08 43.65352 -70.30828 47 ft 7 kts 339°
2026-05-06 18:08 43.65404 -70.30834 47 ft 7 kts 36°
2026-05-06 18:08 43.65420 -70.30799 47 ft 6 kts 67°
2026-05-06 18:08 43.65399 -70.30704 45 ft 16 kts 159°
2026-05-06 18:09 43.65312 -70.30675 45 ft 10 kts 163°
2026-05-06 18:09 43.65267 -70.30656 45 ft 0 kts 159°
2026-05-06 18:10 43.65263 -70.30654 45 ft 7 kts 162°
2026-05-06 18:10 43.65046 -70.30560 49 ft 56 kts 163°
2026-05-06 18:10 43.64627 -70.30342 182 ft 68 kts 168°
2026-05-06 18:10 43.64136 -70.30129 349 ft 79 kts 168°
2026-05-06 18:11 43.63785 -70.29973 465 ft 82 kts 169°
2026-05-06 18:11 43.63249 -70.29819 759 ft 74 kts 181°
2026-05-06 18:11 43.62614 -70.30214 964 ft 80 kts 213°
2026-05-06 18:11 43.62356 -70.30895 1175 ft 86 kts 241°
2026-05-06 18:12 43.62241 -70.31715 1440 ft 80 kts 242°
2026-05-06 18:12 43.62106 -70.32489 1519 ft 92 kts 246°
2026-05-06 18:12 43.61949 -70.33390 1628 ft 99 kts 244°
2026-05-06 18:12 43.61825 -70.34332 1713 ft 106 kts 263°
2026-05-06 18:13 43.61756 -70.35289 1801 ft 95 kts 232°
2026-05-06 18:13 43.61602 -70.36201 1915 ft 102 kts 251°
2026-05-06 18:13 43.61287 -70.37017 2015 ft 96 kts 227°
2026-05-06 18:13 43.60896 -70.37757 2117 ft 93 kts 226°
2026-05-06 18:14 43.60495 -70.38452 2212 ft 92 kts 226°
2026-05-06 18:14 43.60088 -70.39137 2323 ft 93 kts 225°
2026-05-06 18:14 43.59658 -70.39846 2342 ft 100 kts 225°
2026-05-06 18:14 43.59210 -70.40581 2331 ft 100 kts 225°
2026-05-06 18:15 43.58780 -70.41287 2317 ft 91 kts 223°
2026-05-06 18:15 43.58382 -70.41933 2312 ft 86 kts 223°
2026-05-06 18:15 43.57998 -70.42553 2314 ft 84 kts 223°
2026-05-06 18:15 43.57623 -70.43157 2315 ft 82 kts 223°
2026-05-06 18:16 43.57255 -70.43751 2316 ft 83 kts 223°
2026-05-06 18:16 43.56873 -70.44367 2321 ft 85 kts 224°
2026-05-06 18:16 43.56483 -70.44993 2320 ft 86 kts 224°
2026-05-06 18:16 43.56098 -70.45618 2316 ft 85 kts 224°
2026-05-06 18:17 43.55712 -70.46240 2324 ft 85 kts 224°
2026-05-06 18:17 43.55328 -70.46858 2312 ft 84 kts 224°
2026-05-06 18:17 43.54950 -70.47467 2314 ft 83 kts 223°
2026-05-06 18:17 43.54577 -70.48067 2310 ft 84 kts 224°
2026-05-06 18:18 43.54197 -70.48679 2317 ft 85 kts 225°
2026-05-06 18:18 43.53807 -70.49306 2310 ft 86 kts 225°
2026-05-06 18:18 43.53420 -70.49930 2309 ft 85 kts 225°
2026-05-06 18:18 43.53036 -70.50551 2317 ft 85 kts 225°
2026-05-06 18:19 43.52653 -70.51166 2327 ft 84 kts 223°
2026-05-06 18:19 43.52278 -70.51770 2310 ft 82 kts 223°
2026-05-06 18:19 43.51907 -70.52363 2308 ft 81 kts 223°
2026-05-06 18:19 43.51546 -70.52946 2308 ft 81 kts 223°
2026-05-06 18:20 43.51175 -70.53541 2310 ft 83 kts 224°
2026-05-06 18:20 43.50798 -70.54149 2313 ft 83 kts 224°
2026-05-06 18:20 43.50418 -70.54759 2312 ft 84 kts 224°
2026-05-06 18:20 43.50038 -70.55370 2315 ft 84 kts 225°
2026-05-06 18:21 43.49658 -70.55980 2303 ft 83 kts 224°
2026-05-06 18:21 43.49287 -70.56576 2306 ft 80 kts 223°
2026-05-06 18:21 43.48923 -70.57165 2299 ft 80 kts 223°
2026-05-06 18:21 43.48562 -70.57741 2307 ft 79 kts 223°
2026-05-06 18:22 43.48216 -70.58299 2300 ft 77 kts 222°
2026-05-06 18:22 43.47863 -70.58862 2310 ft 79 kts 223°
2026-05-06 18:22 43.47499 -70.59448 2320 ft 81 kts 224°
2026-05-06 18:22 43.47132 -70.60036 2314 ft 81 kts 224°
2026-05-06 18:23 43.46888 -70.60429 2311 ft 81 kts 224°
2026-05-06 18:23 43.46518 -70.61022 2315 ft 82 kts 224°
2026-05-06 18:23 43.46145 -70.61621 2310 ft 82 kts 224°
2026-05-06 18:23 43.45778 -70.62209 2303 ft 81 kts 223°
2026-05-06 18:24 43.45406 -70.62804 2303 ft 82 kts 224°
2026-05-06 18:24 43.45037 -70.63396 2310 ft 81 kts 222°
2026-05-06 18:24 43.44676 -70.63974 2311 ft 80 kts 223°
2026-05-06 18:24 43.44317 -70.64553 2298 ft 79 kts 222°
2026-05-06 18:25 43.43958 -70.65125 2296 ft 79 kts 223°
2026-05-06 18:25 43.43598 -70.65701 2298 ft 79 kts 223°
2026-05-06 18:25 43.43235 -70.66282 2303 ft 81 kts 222°
2026-05-06 18:25 43.42864 -70.66876 2305 ft 83 kts 223°
2026-05-06 18:26 43.42486 -70.67481 2310 ft 83 kts 224°
2026-05-06 18:26 43.42115 -70.68074 2306 ft 82 kts 224°
2026-05-06 18:26 43.41740 -70.68677 2300 ft 84 kts 223°
2026-05-06 18:26 43.41361 -70.69282 2298 ft 84 kts 222°
2026-05-06 18:27 43.40980 -70.69891 2299 ft 84 kts 222°
2026-05-06 18:27 43.40598 -70.70500 2304 ft 84 kts 222°
2026-05-06 18:27 43.40216 -70.71111 2308 ft 84 kts 223°
2026-05-06 18:27 43.39838 -70.71716 2303 ft 82 kts 224°
2026-05-06 18:28 43.39475 -70.72296 2304 ft 78 kts 224°
2026-05-06 18:28 43.39130 -70.72850 2296 ft 76 kts 223°
2026-05-06 18:28 43.38785 -70.73398 2299 ft 76 kts 223°
2026-05-06 18:28 43.38438 -70.73954 2302 ft 77 kts 220°
2026-05-06 18:29 43.38084 -70.74517 2301 ft 79 kts 220°
2026-05-06 18:29 43.37715 -70.75105 2305 ft 82 kts 222°
2026-05-06 18:29 43.37343 -70.75699 2295 ft 82 kts 221°
2026-05-06 18:29 43.36975 -70.76280 2296 ft 79 kts 223°
2026-05-06 18:30 43.36616 -70.76858 2305 ft 79 kts 224°
2026-05-06 18:30 43.36255 -70.77436 2308 ft 80 kts 221°
2026-05-06 18:30 43.35891 -70.78017 2313 ft 83 kts 221°
2026-05-06 18:30 43.35509 -70.78625 2305 ft 83 kts 224°
2026-05-06 18:31 43.35137 -70.79213 2302 ft 80 kts 222°
2026-05-06 18:31 43.34772 -70.79793 2300 ft 80 kts 220°
2026-05-06 18:31 43.34416 -70.80388 2293 ft 79 kts 220°
2026-05-06 18:31 43.34074 -70.80951 2300 ft 74 kts 219°
2026-05-06 18:32 43.33734 -70.81477 2300 ft 74 kts 220°
2026-05-06 18:32 43.33388 -70.82024 2311 ft 79 kts 221°
2026-05-06 18:32 43.33020 -70.82597 2308 ft 79 kts 219°
2026-05-06 18:32 43.32665 -70.83145 2301 ft 75 kts 223°
2026-05-06 18:33 43.32321 -70.83697 2299 ft 75 kts 223°
2026-05-06 18:33 43.31980 -70.84244 2300 ft 76 kts 222°
2026-05-06 18:33 43.31625 -70.84807 2302 ft 79 kts 220°
2026-05-06 18:33 43.31272 -70.85374 2303 ft 78 kts 223°
2026-05-06 18:34 43.30923 -70.85932 2298 ft 76 kts 223°
2026-05-06 18:34 43.30570 -70.86488 2305 ft 80 kts 222°
2026-05-06 18:34 43.30203 -70.87076 2313 ft 82 kts 219°
2026-05-06 18:34 43.29828 -70.87675 2313 ft 83 kts 223°
2026-05-06 18:35 43.29454 -70.88274 2307 ft 83 kts 224°
2026-05-06 18:35 43.29083 -70.88861 2298 ft 80 kts 223°
2026-05-06 18:35 43.28717 -70.89453 2312 ft 84 kts 224°
2026-05-06 18:35 43.28323 -70.90061 2304 ft 87 kts 223°
2026-05-06 18:36 43.27922 -70.90678 2316 ft 88 kts 224°
2026-05-06 18:36 43.27534 -70.91332 2308 ft 88 kts 225°
2026-05-06 18:36 43.27129 -70.91954 2303 ft 86 kts 225°
2026-05-06 18:36 43.26753 -70.92556 2300 ft 80 kts 224°
2026-05-06 18:37 43.26389 -70.93130 2295 ft 78 kts 224°
2026-05-06 18:37 43.26043 -70.93681 2307 ft 77 kts 223°
2026-05-06 18:37 43.25689 -70.94242 2299 ft 77 kts 223°
2026-05-06 18:37 43.25333 -70.94803 2315 ft 80 kts 224°
2026-05-06 18:38 43.24967 -70.95389 2312 ft 82 kts 223°
2026-05-06 18:38 43.24587 -70.95980 2277 ft 85 kts 223°
2026-05-06 18:38 43.24218 -70.96572 2314 ft 82 kts 223°
2026-05-06 18:38 43.23848 -70.97168 2312 ft 82 kts 224°
2026-05-06 18:39 43.23465 -70.97761 2306 ft 82 kts 223°
2026-05-06 18:39 43.23115 -70.98314 2294 ft 74 kts 224°
2026-05-06 18:39 43.22779 -70.98850 2305 ft 77 kts 224°
2026-05-06 18:40 43.22055 -70.99990 2309 ft 79 kts 223°
2026-05-06 18:40 43.21694 -71.00562 2307 ft 80 kts 224°
2026-05-06 18:40 43.21326 -71.01147 2304 ft 81 kts 223°
2026-05-06 18:40 43.20965 -71.01717 2297 ft 79 kts 223°
2026-05-06 18:41 43.20607 -71.02284 2291 ft 78 kts 224°
2026-05-06 18:41 43.20258 -71.02836 2296 ft 76 kts 223°
2026-05-06 18:41 43.19907 -71.03388 2292 ft 77 kts 224°
2026-05-06 18:41 43.19560 -71.03944 2309 ft 77 kts 224°
2026-05-06 18:42 43.19205 -71.04500 2304 ft 79 kts 224°
2026-05-06 18:42 43.18843 -71.05074 2318 ft 82 kts 225°
2026-05-06 18:42 43.18446 -71.05685 2310 ft 89 kts 226°
2026-05-06 18:42 43.18034 -71.06351 2309 ft 94 kts 230°
2026-05-06 18:43 43.17636 -71.07082 2287 ft 96 kts 230°
2026-05-06 18:43 43.17163 -71.07731 2322 ft 96 kts 223°
2026-05-06 18:43 43.16742 -71.08390 2305 ft 87 kts 223°
2026-05-06 18:43 43.16355 -71.08986 2300 ft 82 kts 224°
2026-05-06 18:44 43.15990 -71.09569 2251 ft 79 kts 222°
2026-05-06 18:44 43.15624 -71.10156 2163 ft 84 kts 224°
2026-05-06 18:44 43.15218 -71.10802 2145 ft 95 kts 223°
2026-05-06 18:44 43.14753 -71.11512 2295 ft 101 kts 224°
2026-05-06 18:45 43.14275 -71.12359 2222 ft 120 kts 223°
2026-05-06 18:45 43.13716 -71.13132 2314 ft 107 kts 219°
2026-05-06 18:45 43.13196 -71.13949 2204 ft 109 kts 229°
2026-05-06 18:45 43.12769 -71.14648 2278 ft 86 kts 223°
2026-05-06 18:46 43.12403 -71.15229 2290 ft 78 kts 224°
2026-05-06 18:46 43.12058 -71.15771 2290 ft 73 kts 224°
2026-05-06 18:46 43.11731 -71.16287 2304 ft 71 kts 224°
2026-05-06 18:46 43.11397 -71.16812 2297 ft 74 kts 225°
2026-05-06 18:47 43.11061 -71.17340 2292 ft 71 kts 224°
2026-05-06 18:47 43.10754 -71.17823 2296 ft 64 kts 221°
2026-05-06 18:47 43.10456 -71.18291 2302 ft 66 kts 224°
2026-05-06 18:47 43.10148 -71.18763 2306 ft 68 kts 223°
2026-05-06 18:48 43.09837 -71.19264 2302 ft 71 kts 223°
2026-05-06 18:48 43.09515 -71.19771 2320 ft 71 kts 222°
2026-05-06 18:48 43.09180 -71.20298 2311 ft 74 kts 225°
2026-05-06 18:48 43.08846 -71.20823 2238 ft 75 kts 226°
2026-05-06 18:49 43.08493 -71.21377 2161 ft 77 kts 224°
2026-05-06 18:49 43.08136 -71.21940 2102 ft 80 kts 224°
2026-05-06 18:49 43.07757 -71.22537 2027 ft 85 kts 225°
2026-05-06 18:49 43.07367 -71.23141 1950 ft 85 kts 222°
2026-05-06 18:50 43.06999 -71.23727 1873 ft 81 kts 224°
2026-05-06 18:50 43.06620 -71.24320 1795 ft 86 kts 224°
2026-05-06 18:50 43.06207 -71.24959 1733 ft 93 kts 223°
2026-05-06 18:50 43.05793 -71.25642 1671 ft 94 kts 228°
2026-05-06 18:51 43.05349 -71.26305 1583 ft 94 kts 225°
2026-05-06 18:51 43.04915 -71.26965 1516 ft 93 kts 223°
2026-05-06 18:51 43.04507 -71.27654 1447 ft 94 kts 225°
2026-05-06 18:51 43.04064 -71.28335 1379 ft 99 kts 224°
2026-05-06 18:52 43.03618 -71.29043 1318 ft 98 kts 226°
2026-05-06 18:52 43.03160 -71.29718 1310 ft 94 kts 221°
2026-05-06 18:52 43.02741 -71.30365 1289 ft 91 kts 224°
2026-05-06 18:52 43.02359 -71.31016 1295 ft 86 kts 225°
2026-05-06 18:53 43.02019 -71.31698 1301 ft 89 kts 231°
2026-05-06 18:53 43.01668 -71.32413 1295 ft 91 kts 228°
2026-05-06 18:53 43.01305 -71.33124 1311 ft 91 kts 228°
2026-05-06 18:53 43.00956 -71.33855 1309 ft 91 kts 230°
2026-05-06 18:54 43.00579 -71.34519 1320 ft 89 kts 226°
2026-05-06 18:54 43.00219 -71.35231 1304 ft 91 kts 227°
2026-05-06 18:54 42.99795 -71.35867 1301 ft 90 kts 224°
2026-05-06 18:54 42.99377 -71.36499 1301 ft 89 kts 223°
2026-05-06 18:55 42.98958 -71.37142 1261 ft 92 kts 225°
2026-05-06 18:55 42.98565 -71.37776 1254 ft 83 kts 224°
2026-05-06 18:55 42.98185 -71.38342 1192 ft 81 kts 220°
2026-05-06 18:55 42.97779 -71.38880 1066 ft 85 kts 223°
2026-05-06 18:56 42.97375 -71.39403 1010 ft 77 kts 212°
2026-05-06 18:56 42.96908 -71.39802 929 ft 85 kts 213°
2026-05-06 18:56 42.96464 -71.40399 848 ft 92 kts 219°
2026-05-06 18:56 42.96000 -71.40973 810 ft 86 kts 213°
2026-05-06 18:57 42.95564 -71.41508 647 ft 84 kts 213°
2026-05-06 18:57 42.95154 -71.42021 562 ft 76 kts 219°
2026-05-06 18:57 42.94773 -71.42478 399 ft 72 kts 219°
2026-05-06 18:57 42.94423 -71.42927 317 ft 68 kts 219°
2026-05-06 18:58 42.94073 -71.43350 238 ft 65 kts 218°
2026-05-06 18:58 42.93768 -71.43728 220 ft 49 kts 225°
2026-05-06 18:58 42.93623 -71.43917 220 ft 22 kts 222°
2026-05-06 18:58 42.93518 -71.43917 218 ft 15 kts 114°
2026-05-06 18:59 42.93533 -71.43806 220 ft 9 kts 72°
2026-05-06 18:59 42.93526 -71.43741 222 ft 5 kts 133°
2026-05-06 18:59 42.93489 -71.43714 223 ft 8 kts 158°
2026-05-06 18:59 42.93443 -71.43673 224 ft 7 kts 121°
2026-05-06 19:00 42.93445 -71.43620 224 ft 6 kts 73°
2026-05-06 19:00 42.93472 -71.43530 223 ft 14 kts 66°
2026-05-06 19:00 42.93502 -71.43420 224 ft 10 kts 96°
2026-05-06 19:00 42.93477 -71.43380 218 ft 8 kts 152°
2026-05-06 19:01 42.93399 -71.43334 226 ft 10 kts 157°
2026-05-06 19:01 42.93327 -71.43293 228 ft 12 kts 157°
2026-05-06 19:01 42.93263 -71.43251 229 ft 7 kts 134°
2026-05-06 19:01 42.93269 -71.43197 229 ft 6 kts 30°
2026-05-06 19:02 42.93287 -71.43200 229 ft 0 kts 324°